sat.trackr.live / text

‹ back to catalog

GEESAT-3 04

NORAD 61014 · 2024-159D

PAYLOAD ACTIVE UNKNOWN

§ Identity

Operator
Country
PRC
Launch date
2024-09-05
Launch site
TAISC
Launch vehicle
Mass (kg)
RCS (m²)

External: N2YO · Heavens-Above · Gunter

§ Orbital elements

Epoch: 2026-05-25T03:18:59.782752Z

Period
97.09 min
Inclination
49.9968°
Eccentricity
0.0003083
Mean motion
14.83153295 rev/d
Perigee alt
617.2 km
Apogee alt
621.5 km
Semi-major
6,997.5 km
B*
2.6931e-4
RAAN
100.8400°
Arg perigee
344.0538°
Mean anomaly
16.0303°
Rev number
9,458

§ Raw data

GEESAT-3 041 61014U 24159D   26145.13819193  .00001995  00000+0  26931-3 0  99932 61014  49.9968 100.8400 0003083 344.0538  16.0303 14.83153295 94583

JSON: /api/v1/satellites/61014 · /tle

For live sub-satellite position, see the globe view (requires WebGL).

§ Visibility from observer

Set your observer location to see the next 7 days of passes ≥ 10°. The values pass through the URL so the page stays shareable.

No JS? Fill the form by hand. The geolocation button needs JavaScript.